Time,TemperatureF,DewpointF,PressureIn,WindDirection,WindDirectionDegrees,WindSpeedMPH,WindSpeedGustMPH,Humidity,HourlyPrecipIn,Conditions,Clouds,dailyrainin,SoftwareType,DateUTC
2013-12-15 00:01:00,43.2,40.0,29.95,West,267,0.0,1.0,89,0.00,,,0.85,weatherlink.com 1.10,2013-12-15 05:01:00,
2013-12-15 00:16:00,42.7,40.0,29.95,ENE,78,0.0,1.0,89,0.00,,,0.00,weatherlink.com 1.10,2013-12-15 05:16:00,
2013-12-15 00:31:00,42.2,39.0,29.95,West,265,0.0,1.0,89,0.00,,,0.00,weatherlink.com 1.10,2013-12-15 05:31:00,
2013-12-15 00:50:00,41.5,39.0,29.96,North,3,0.0,2.0,90,0.00,,,0.00,weatherlink.com 1.10,2013-12-15 05:50:00,
2013-12-15 01:01:00,41.1,38.0,29.96,NW,317,0.0,3.0,90,0.00,,,0.00,weatherlink.com 1.10,2013-12-15 06:01:00,
2013-12-15 01:16:00,40.6,38.0,29.97,South,178,0.0,2.0,89,0.00,,,0.00,weatherlink.com 1.10,2013-12-15 06:16:00,
2013-12-15 01:31:00,40.3,37.0,29.97,SSE,149,0.0,0.0,89,0.00,,,0.00,weatherlink.com 1.10,2013-12-15 06:31:00,
2013-12-15 01:46:00,39.9,37.0,29.97,WNW,293,0.0,2.0,89,0.00,,,0.00,weatherlink.com 1.10,2013-12-15 06:46:00,
2013-12-15 02:01:00,39.6,37.0,29.98,ESE,105,1.0,3.0,89,0.00,,,0.00,weatherlink.com 1.10,2013-12-15 07:01:00,
2013-12-15 02:16:00,39.3,36.0,29.98,West,281,0.0,2.0,89,0.00,,,0.00,weatherlink.com 1.10,2013-12-15 07:16:00,
2013-12-15 02:31:00,39.1,36.0,29.99,East,87,0.0,2.0,88,0.00,,,0.00,weatherlink.com 1.10,2013-12-15 07:31:00,
2013-12-15 02:46:00,38.8,36.0,30.00,SE,127,0.0,1.0,89,0.00,,,0.00,weatherlink.com 1.10,2013-12-15 07:46:00,
2013-12-15 03:01:00,38.5,36.0,30.00,West,275,0.0,1.0,90,0.00,,,0.00,weatherlink.com 1.10,2013-12-15 08:01:00,
2013-12-15 03:16:00,38.1,35.0,30.00,SE,134,0.0,4.0,88,0.00,,,0.00,weatherlink.com 1.10,2013-12-15 08:16:00,
2013-12-15 03:31:00,38.0,34.0,30.01,West,264,0.0,4.0,86,0.00,,,0.00,weatherlink.com 1.10,2013-12-15 08:31:00,
2013-12-15 03:46:00,37.9,34.0,30.02,NE,34,0.0,1.0,87,0.00,,,0.00,weatherlink.com 1.10,2013-12-15 08:46:00,
2013-12-15 04:01:00,37.7,35.0,30.02,WSW,237,0.0,2.0,88,0.00,,,0.00,weatherlink.com 1.10,2013-12-15 09:01:00,
2013-12-15 04:16:00,37.5,35.0,30.02,West,260,0.0,0.0,89,0.00,,,0.00,weatherlink.com 1.10,2013-12-15 09:16:00,
2013-12-15 04:31:00,37.4,35.0,30.03,West,267,0.0,1.0,89,0.00,,,0.00,weatherlink.com 1.10,2013-12-15 09:31:00,
2013-12-15 04:47:00,37.2,34.0,30.03,SW,224,0.0,1.0,88,0.00,,,0.00,weatherlink.com 1.10,2013-12-15 09:47:00,
2013-12-15 05:02:00,37.0,34.0,30.04,West,259,0.0,1.0,90,0.00,,,0.00,weatherlink.com 1.10,2013-12-15 10:02:00,
2013-12-15 05:17:00,36.7,34.0,30.05,WSW,243,0.0,1.0,91,0.00,,,0.00,weatherlink.com 1.10,2013-12-15 10:17:00,
2013-12-15 05:36:00,36.5,34.0,30.06,West,274,0.0,1.0,89,0.00,,,0.00,weatherlink.com 1.10,2013-12-15 10:36:00,
2013-12-15 05:47:00,36.3,33.0,30.07,WSW,243,0.0,2.0,87,0.00,,,0.00,weatherlink.com 1.10,2013-12-15 10:47:00,
2013-12-15 06:02:00,36.2,32.0,30.07,WSW,247,1.0,2.0,86,0.00,,,0.00,weatherlink.com 1.10,2013-12-15 11:02:00,
2013-12-15 06:17:00,36.1,32.0,30.07,East,84,0.0,1.0,86,0.00,,,0.00,weatherlink.com 1.10,2013-12-15 11:17:00,
2013-12-15 06:32:00,36.0,33.0,30.08,West,264,0.0,2.0,87,0.00,,,0.00,weatherlink.com 1.10,2013-12-15 11:32:00,
2013-12-15 06:47:00,35.9,32.0,30.09,WSW,240,0.0,1.0,86,0.00,,,0.00,weatherlink.com 1.10,2013-12-15 11:47:00,
2013-12-15 07:02:00,35.7,32.0,30.10,WNW,286,0.0,2.0,86,0.00,,,0.00,weatherlink.com 1.10,2013-12-15 12:02:00,
2013-12-15 07:17:00,35.5,32.0,30.11,West,274,0.0,2.0,86,0.00,,,0.00,weatherlink.com 1.10,2013-12-15 12:17:00,
2013-12-15 07:32:00,35.5,32.0,30.12,WSW,250,0.0,1.0,87,0.00,,,0.00,weatherlink.com 1.10,2013-12-15 12:32:00,
2013-12-15 07:47:00,35.3,32.0,30.12,East,91,0.0,3.0,86,0.00,,,0.00,weatherlink.com 1.10,2013-12-15 12:47:00,
2013-12-15 08:02:00,35.2,31.0,30.13,WNW,283,0.0,1.0,86,0.00,,,0.00,weatherlink.com 1.10,2013-12-15 13:02:00,
2013-12-15 08:17:00,35.1,32.0,30.13,WSW,250,0.0,3.0,87,0.00,,,0.00,weatherlink.com 1.10,2013-12-15 13:17:00,
2013-12-15 08:32:00,34.9,31.0,30.14,WSW,247,1.0,4.0,87,0.00,,,0.00,weatherlink.com 1.10,2013-12-15 13:32:00,
2013-12-15 08:49:00,34.9,32.0,30.14,NE,38,0.0,1.0,88,0.00,,,0.00,weatherlink.com 1.10,2013-12-15 13:49:00,
2013-12-15 09:02:00,34.8,32.0,30.15,SW,226,0.0,2.0,88,0.00,,,0.00,weatherlink.com 1.10,2013-12-15 14:02:00,
2013-12-15 09:17:00,34.7,31.0,30.16,West,265,0.0,1.0,87,0.00,,,0.00,weatherlink.com 1.10,2013-12-15 14:17:00,
2013-12-15 09:32:00,34.7,31.0,30.17,West,264,0.0,1.0,87,0.00,,,0.00,weatherlink.com 1.10,2013-12-15 14:32:00,
2013-12-15 09:47:00,34.7,32.0,30.18,ESE,114,0.0,1.0,88,0.00,,,0.00,weatherlink.com 1.10,2013-12-15 14:47:00,
2013-12-15 10:02:00,34.7,31.0,30.19,West,266,0.0,2.0,87,0.00,,,0.00,weatherlink.com 1.10,2013-12-15 15:02:00,
2013-12-15 10:20:00,34.8,31.0,30.19,WSW,246,0.0,1.0,85,0.00,,,0.00,weatherlink.com 1.10,2013-12-15 15:20:00,
2013-12-15 10:32:00,34.9,31.0,30.20,West,270,0.0,2.0,84,0.00,,,0.00,weatherlink.com 1.10,2013-12-15 15:32:00,
2013-12-15 10:47:00,35.2,31.0,30.19,West,271,0.0,1.0,84,0.00,,,0.00,weatherlink.com 1.10,2013-12-15 15:47:00,
2013-12-15 11:02:00,35.4,31.0,30.19,West,270,0.0,1.0,84,0.00,,,0.00,weatherlink.com 1.10,2013-12-15 16:02:00,
2013-12-15 11:17:00,35.3,31.0,30.20,SE,138,0.0,7.0,85,0.00,,,0.00,weatherlink.com 1.10,2013-12-15 16:17:00,
2013-12-15 11:32:00,35.3,31.0,30.19,West,278,0.0,3.0,85,0.00,,,0.00,weatherlink.com 1.10,2013-12-15 16:32:00,
2013-12-15 11:47:00,35.4,32.0,30.19,East,86,0.0,2.0,86,0.00,,,0.00,weatherlink.com 1.10,2013-12-15 16:47:00,
2013-12-15 12:02:00,35.1,31.0,30.19,East,94,2.0,4.0,85,0.00,,,0.00,weatherlink.com 1.10,2013-12-15 17:02:00,
2013-12-15 12:17:00,35.0,31.0,30.18,ESE,104,0.0,1.0,85,0.00,,,0.00,weatherlink.com 1.10,2013-12-15 17:17:00,
2013-12-15 12:32:00,35.5,31.0,30.18,WSW,248,0.0,0.0,85,0.00,,,0.00,weatherlink.com 1.10,2013-12-15 17:32:00,
2013-12-15 12:47:00,35.6,31.0,30.18,East,97,1.0,1.0,84,0.00,,,0.00,weatherlink.com 1.10,2013-12-15 17:47:00,
2013-12-15 13:02:00,35.5,31.0,30.18,ENE,77,0.0,1.0,84,0.00,,,0.00,weatherlink.com 1.10,2013-12-15 18:02:00,
2013-12-15 13:17:00,35.3,31.0,30.18,West,263,0.0,3.0,84,0.00,,,0.00,weatherlink.com 1.10,2013-12-15 18:17:00,
2013-12-15 13:34:00,35.1,31.0,30.18,ESE,111,2.0,2.0,84,0.00,,,0.00,weatherlink.com 1.10,2013-12-15 18:34:00,
2013-12-15 13:48:00,35.3,31.0,30.18,WSW,255,0.0,1.0,84,0.00,,,0.00,weatherlink.com 1.10,2013-12-15 18:48:00,
2013-12-15 14:03:00,35.5,31.0,30.18,SW,235,0.0,1.0,83,0.00,,,0.00,weatherlink.com 1.10,2013-12-15 19:03:00,
2013-12-15 14:18:00,35.7,30.0,30.18,NW,309,0.0,1.0,81,0.00,,,0.00,weatherlink.com 1.10,2013-12-15 19:18:00,
2013-12-15 14:33:00,36.3,31.0,30.18,South,170,0.0,2.0,81,0.00,,,0.00,weatherlink.com 1.10,2013-12-15 19:33:00,
2013-12-15 14:48:00,36.7,32.0,30.18,East,94,0.0,0.0,82,0.00,,,0.00,weatherlink.com 1.10,2013-12-15 19:48:00,
2013-12-15 15:06:00,36.9,31.0,30.19,NW,325,0.0,2.0,80,0.00,,,0.00,weatherlink.com 1.10,2013-12-15 20:06:00,
2013-12-15 15:18:00,36.8,31.0,30.19,East,94,0.0,1.0,78,0.00,,,0.00,weatherlink.com 1.10,2013-12-15 20:18:00,
2013-12-15 15:33:00,36.9,30.0,30.20,East,94,0.0,4.0,76,0.00,,,0.00,weatherlink.com 1.10,2013-12-15 20:33:00,
2013-12-15 15:48:00,37.8,31.0,30.20,ESE,122,0.0,2.0,75,0.00,,,0.00,weatherlink.com 1.10,2013-12-15 20:48:00,
2013-12-15 16:03:00,37.4,30.0,30.20,West,266,0.0,1.0,76,0.00,,,0.00,weatherlink.com 1.10,2013-12-15 21:03:00,
2013-12-15 16:18:00,37.0,31.0,30.21,WSW,238,0.0,1.0,78,0.00,,,0.00,weatherlink.com 1.10,2013-12-15 21:18:00,
2013-12-15 16:33:00,36.7,30.0,30.22,SW,236,0.0,1.0,78,0.00,,,0.00,weatherlink.com 1.10,2013-12-15 21:33:00,
2013-12-15 16:48:00,36.4,30.0,30.22,ESE,112,0.0,1.0,79,0.00,,,0.00,weatherlink.com 1.10,2013-12-15 21:48:00,
2013-12-15 17:03:00,36.1,30.0,30.22,NE,52,0.0,1.0,79,0.00,,,0.00,weatherlink.com 1.10,2013-12-15 22:03:00,
2013-12-15 17:18:00,35.7,30.0,30.22,NE,53,0.0,1.0,79,0.00,,,0.00,weatherlink.com 1.10,2013-12-15 22:18:00,
2013-12-15 17:33:00,35.4,30.0,30.23,NNE,23,0.0,0.0,79,0.00,,,0.00,weatherlink.com 1.10,2013-12-15 22:33:00,
2013-12-15 17:48:00,35.1,30.0,30.23,NNE,23,0.0,0.0,80,0.00,,,0.00,weatherlink.com 1.10,2013-12-15 22:48:00,
2013-12-15 18:03:00,34.7,29.0,30.23,NNE,23,0.0,1.0,79,0.00,,,0.00,weatherlink.com 1.10,2013-12-15 23:03:00,
2013-12-15 18:19:00,34.4,29.0,30.24,NNE,23,0.0,1.0,82,0.00,,,0.00,weatherlink.com 1.10,2013-12-15 23:19:00,
2013-12-15 18:33:00,34.3,29.0,30.24,ESE,108,0.0,1.0,82,0.00,,,0.00,weatherlink.com 1.10,2013-12-15 23:33:00,
2013-12-15 18:48:00,34.2,29.0,30.26,ESE,106,0.0,1.0,82,0.00,,,0.00,weatherlink.com 1.10,2013-12-15 23:48:00,
2013-12-15 19:03:00,34.2,29.0,30.26,SE,139,0.0,0.0,81,0.00,,,0.00,weatherlink.com 1.10,2013-12-16 00:03:00,
2013-12-15 19:18:00,34.1,29.0,30.25,ESE,120,0.0,0.0,82,0.00,,,0.00,weatherlink.com 1.10,2013-12-16 00:18:00,
2013-12-15 19:33:00,34.1,30.0,30.26,ESE,120,0.0,0.0,83,0.00,,,0.00,weatherlink.com 1.10,2013-12-16 00:33:00,
2013-12-15 19:48:00,34.1,29.0,30.27,SE,136,0.0,0.0,82,0.00,,,0.00,weatherlink.com 1.10,2013-12-16 00:48:00,
2013-12-15 20:03:00,34.1,30.0,30.27,SE,136,0.0,0.0,83,0.00,,,0.00,weatherlink.com 1.10,2013-12-16 01:03:00,
2013-12-15 20:18:00,34.0,29.0,30.27,SE,136,0.0,0.0,83,0.00,,,0.00,weatherlink.com 1.10,2013-12-16 01:18:00,
2013-12-15 20:33:00,33.9,30.0,30.27,SE,136,0.0,0.0,84,0.00,,,0.00,weatherlink.com 1.10,2013-12-16 01:33:00,
2013-12-15 20:48:00,33.8,29.0,30.27,SE,136,0.0,0.0,83,0.00,,,0.00,weatherlink.com 1.10,2013-12-16 01:48:00,
2013-12-15 21:03:00,33.7,29.0,30.27,SE,136,0.0,0.0,84,0.00,,,0.00,weatherlink.com 1.10,2013-12-16 02:03:00,
2013-12-15 21:18:00,33.5,30.0,30.27,SE,136,0.0,0.0,85,0.00,,,0.00,weatherlink.com 1.10,2013-12-16 02:18:00,
2013-12-15 21:33:00,33.1,30.0,30.26,SE,136,0.0,0.0,87,0.00,,,0.00,weatherlink.com 1.10,2013-12-16 02:33:00,
2013-12-15 21:48:00,32.4,29.0,30.26,South,182,0.0,0.0,86,0.00,,,0.00,weatherlink.com 1.10,2013-12-16 02:48:00,
2013-12-15 22:03:00,31.9,29.0,30.27,South,182,0.0,0.0,88,0.00,,,0.00,weatherlink.com 1.10,2013-12-16 03:03:00,
2013-12-15 22:18:00,31.4,29.0,30.28,South,182,0.0,0.0,90,0.00,,,0.00,weatherlink.com 1.10,2013-12-16 03:18:00,
2013-12-15 22:33:00,31.6,29.0,30.28,South,182,0.0,0.0,91,0.00,,,0.00,weatherlink.com 1.10,2013-12-16 03:33:00,
2013-12-15 22:48:00,31.7,29.0,30.27,South,182,0.0,0.0,91,0.00,,,0.00,weatherlink.com 1.10,2013-12-16 03:48:00,
2013-12-15 23:04:00,31.4,29.0,30.27,South,182,0.0,0.0,90,0.00,,,0.00,weatherlink.com 1.10,2013-12-16 04:04:00,
2013-12-15 23:18:00,30.6,28.0,30.26,South,182,0.0,0.0,91,0.00,,,0.00,weatherlink.com 1.10,2013-12-16 04:18:00,
2013-12-15 23:33:00,29.5,28.0,30.27,South,175,0.0,0.0,92,0.00,,,0.00,weatherlink.com 1.10,2013-12-16 04:33:00,
2013-12-15 23:48:00,28.9,27.0,30.26,South,175,0.0,0.0,93,0.00,,,0.00,weatherlink.com 1.10,2013-12-16 04:48:00,